#timestamp,LO_Frequency,Hit 
1501758015.4,286046997.0,N
1501758035.2,286046996.8,N
1501758055.0,286046999.2,N
1501758055.9,286046999.2,N
1501758075.8,286046998.5,N
1501758095.6,286046999.7,N
1501758115.4,286047000.8,N
1501758135.3,286046998.9,N
1501758155.1,286046998.8,N
1501758156.0,286046998.8,N
1501758175.8,286046999.6,N
1501758195.7,286047000.3,N
1501758215.5,286046999.7,N
1501758235.3,286047005.6,N
1501758255.1,286047002.1,N
1501758275.9,286046997.5,N
1501758295.7,286046997.3,N
1501758315.5,286046997.3,N
1501758335.4,286046999.5,N
1501758355.2,286046999.3,N
1501758375.0,286046996.4,N
1501758375.9,286046996.4,N
1501758395.8,286046996.4,N
1501758415.6,286046996.1,N
1501758435.4,286046992.1,P
1501758455.3,286046995.7,N
1501758475.1,286046995.5,N
1501758495.8,286046997.7,N
1501758515.7,286046999.2,N
1501758535.5,286046996.7,N
1501758555.3,286046996.6,N
1501758575.2,286047002.8,N
1501758595.9,286047002.8,N
1501758615.7,286047002.7,N
1501758635.6,286047001.4,N
1501758655.4,286047002.9,N
1501758675.2,286047006.5,N
1501758695.1,286047004.5,N
1501758696.0,286047004.5,N
1501758715.8,286047006.9,N
1501758735.6,286047008.0,N
1501758755.5,286047009.6,N
1501758775.3,286047012.3,N
1501758795.1,286047013.7,N
1501758815.8,286047011.7,N
1501758835.7,286047011.8,N
1501758855.5,286047012.4,N
1501758875.3,286047012.4,N
1501758895.2,286047008.0,N
1501758915.9,286047010.2,N
1501758935.7,286047009.4,N
1501758955.6,286047011.7,N
1501758975.4,286047011.5,N
1501758995.2,286047011.2,N
1501759015.1,286047014.0,N
1501759016.0,286047014.0,N
1501759035.8,286047013.3,N
1501759055.6,286047015.0,N
1501759075.5,286047013.2,N
1501759095.3,286047015.6,P
1501759115.1,286047007.6,N
1501759135.9,286047007.6,N
1501759155.7,286047006.3,N
1501759175.5,286047007.3,N
1501759195.4,286047008.3,N
1501759215.2,286047009.9,P
1501759235.0,286047005.9,P
1501759235.9,286047005.9,P
1501759255.8,286047004.8,N
1501759275.6,286047008.0,P
1501759295.4,286047000.3,N
1501759315.3,286047005.9,N
1501759335.1,286047007.5,N
1501759336.0,286047007.5,N
1501759355.8,286047007.0,N
1501759375.7,286047010.0,P
1501759395.5,286047005.8,P
1501759415.3,286047007.2,P
1501759435.2,286047009.9,P
1501759455.0,286047003.9,N
1501759455.9,286047003.9,N
1501759475.7,286047005.2,N
1501759495.6,286047004.6,N
1501759515.4,286047001.6,N
1501759535.2,286047000.0,N
1501759555.1,286047003.5,N
1501759556.0,286047003.5,N
1501759575.8,286047008.9,P
1501759595.6,286047004.7,N
1501759615.5,286047007.3,P
1501759635.3,286047008.2,P
1501759655.2,286047005.2,P
1501759675.9,286047003.2,N
1501759695.7,286047004.9,N
1501759715.5,286047003.2,N
1501759735.4,286047006.5,P
1501759755.2,286047003.9,P
1501759775.1,286047006.9,P
1501759776.0,286047006.9,P
1501759795.8,286047001.5,N
1501759815.6,286047003.9,N
1501759835.5,286047003.9,N
1501759855.3,286047005.1,N
1501759875.1,286047007.5,P
1501759895.9,286047001.3,N
1501759915.7,286047013.8,P
1501759935.5,286047013.5,N
1501759955.4,286047011.4,N
1501759975.2,286047014.0,N
1501759995.0,286047014.8,P
1501759995.9,286047014.8,P
1501760015.8,286047005.2,N
1501760035.6,286047005.1,N
1501760055.4,286047004.9,N
1501760075.3,286047007.1,N
1501760095.1,286047006.6,N
1501760096.0,286047006.6,N
1501760115.8,286047007.4,N
1501760135.7,286047003.4,N
1501760155.5,286047006.4,N
1501760175.3,286047007.6,N
1501760195.2,286047002.9,N
1501760215.9,286047002.2,N
1501760235.7,286047002.2,N
1501760255.5,286047002.3,N
1501760275.4,286047000.1,N
1501760295.2,286047002.8,N
1501760315.0,286047000.0,N
1501760315.9,286047000.0,N
1501760335.8,286047002.7,N
1501760355.6,286047001.0,N
1501760375.4,286047001.4,N
1501760395.3,286047004.9,N
1501760415.1,286047010.3,N
1501760416.0,286047010.3,N
1501760435.8,286047007.9,N
1501760455.7,286047009.0,N
1501760475.5,286047008.7,N
1501760495.3,286047008.0,N
1501760515.2,286047008.7,N
1501760535.9,286047007.7,N
1501760555.7,286047009.4,P
1501760575.6,286047003.2,N
1501760595.4,286047001.3,N
1501760615.2,286047002.6,N
1501760635.1,286047000.5,N
1501760636.0,286047000.5,N
1501760655.8,286047001.1,N
1501760675.6,286047000.9,N
1501760695.4,286046999.1,N
1501760715.3,286047001.0,N
1501760735.1,286046998.6,N
1501760755.8,286047001.4,N
1501760775.7,286047002.3,N
1501760795.5,286047005.6,N
1501760815.3,286047007.2,N
1501760835.2,286047007.4,N
1501760855.9,286047006.9,N
1501760875.7,286047003.7,N
1501760895.6,286047002.8,N
1501760915.4,286047004.4,N
1501760935.2,286047001.7,N
1501760955.0,286047000.2,N
1501760956.0,286047000.2,N
1501760975.8,286047001.0,N
1501760995.6,286046996.9,N
1501761015.4,286046997.0,N
1501761035.3,286046996.6,N
1501761055.1,286046994.9,N
1501761075.8,286046997.6,N
1501761095.7,286046993.7,N
1501761115.5,286046994.6,N
1501761135.3,286046994.7,N
1501761155.2,286046994.8,N
1501761175.9,286046991.7,N
1501761195.7,286046994.7,N
1501761215.6,286046992.7,N
1501761235.4,286046992.4,N
1501761255.2,286046994.2,N
1501761275.1,286046994.5,N
1501761276.0,286046994.5,N
1501761295.8,286046994.7,N
1501761315.6,286046994.4,N
1501761335.5,286046992.5,N
1501761355.3,286046991.9,N
1501761375.1,286046996.8,N
1501761395.8,286046998.6,N
1501761415.7,286047000.8,N
1501761435.5,286046996.5,N
1501761455.3,286046999.5,N
1501761475.2,286046999.5,N
1501761495.9,286046998.5,N
1501761515.7,286046998.6,N
1501761535.6,286046997.8,N
1501761555.4,286046998.0,N
1501761575.2,286046996.4,N
1501761595.1,286046996.1,N
1501761596.0,286046996.1,N
